Zurück zum Katalog

DELTA 2 DEB

LostHEO
NORAD 35568·DEBRIS·🇺🇸 United States

Gestartet Oct 17, 2007 von Cape Canaveral Space Force Station

Loading…

Nächste Überflüge (nächste 24 Stunden)

TLE

VeraltetSource: Space-Track

Epoche: Jun 2, 2024, 02:43 UTC

1 35568U 07047D   24154.11334788  .00012927  00000-0  36933-3 0  9994
2 35568  39.9329 325.9322 4308706 237.4841  73.6089  6.94003059312989

Verfolge DELTA 2 DEB in Echtzeit mit AllMySat

Download on the App Store